This is the latest recevied weather packets stored in our database for station/object KK7MLS-13. If no packets are shown the sender has not sent any weather packets the latest 10 day(s).
| Time | Temp. | Humidity | Pressure | Rain* | Wind** | Luminosity | Snow |
|---|---|---|---|---|---|---|---|
| 1777710594 | 12.22° C | 81% | 1017.1 hPa | 0 mm | - | 0 W/m² | - |
| 1777710291 | 12.78° C | 78% | 1017.4 hPa | 0 mm | - | 0 W/m² | - |
| 1777709988 | 12.78° C | 74% | 1017.1 hPa | 0 mm | - | 0 W/m² | - |
| 1777709686 | 12.78° C | 72% | 1017.1 hPa | 0 mm | - | 0 W/m² | - |
| 1777709382 | 12.78° C | 70% | 1017.1 hPa | 0 mm | - | 0 W/m² | - |
| 1777709080 | 12.78° C | 71% | 1017.7 hPa | 0 mm | - | 0 W/m² | - |
| 1777708777 | 12.78° C | 72% | 1018 hPa | 0 mm | - | 0 W/m² | - |
| 1777708475 | 12.78° C | 73% | 1017.8 hPa | 0 mm | - | 0 W/m² | - |
| 1777708173 | 12.78° C | 75% | 1017.7 hPa | 0 mm | - | 0 W/m² | - |
| 1777707870 | 12.78° C | 76% | 1017.4 hPa | 0 mm | - | 0 W/m² | - |
| 1777707566 | 12.78° C | 77% | 1017 hPa | 0 mm | - | 0 W/m² | - |
| 1777707262 | 12.78° C | 76% | 1017.1 hPa | 0 mm | - | 0 W/m² | - |
| 1777706960 | 12.78° C | 76% | 1017 hPa | 0 mm | - | 0 W/m² | - |
| 1777706657 | 12.78° C | 77% | 1017 hPa | 0 mm | - | 0 W/m² | - |
| 1777706355 | 12.78° C | 77% | 1016.9 hPa | 0 mm | - | 0 W/m² | - |
| 1777706052 | 12.78° C | 77% | 1017 hPa | 0 mm | - | 0 W/m² | - |
| 1777705751 | 12.78° C | 76% | 1017 hPa | 0 mm | - | 0 W/m² | - |
| 1777705448 | 13.33° C | 76% | 1017.2 hPa | 0 mm | - | 0 W/m² | - |
| 1777705146 | 13.33° C | 77% | 1016.9 hPa | 0 mm | - | 0 W/m² | - |
| 1777704845 | 13.33° C | 77% | 1017 hPa | 0 mm | - | 0 W/m² | - |
| 1777704542 | 13.33° C | 77% | 1017 hPa | 0 mm | - | 0 W/m² | - |
| 1777704240 | 12.78° C | 77% | 1017.3 hPa | 0 mm | - | 0 W/m² | - |
| 1777703936 | 12.78° C | 77% | 1017.1 hPa | 0 mm | - | 0 W/m² | - |
| 1777703634 | 13.33° C | 76% | 1017.2 hPa | 0 mm | - | 0 W/m² | - |
| 1777703331 | 13.33° C | 75% | 1017.3 hPa | 0 mm | - | 0 W/m² | - |
* Rain latest hour (hover to see other rain measurements)
** Current wind speed in m/s (hover to see current wind gust speed)